Terug naar catalogus

SICH 2

ActiefWetenschapSSO
NORAD 37794·PAYLOAD·🇺🇦 Ukraine

Gelanceerd Aug 17, 2011 vanaf Dombarovsky

Loading…

Volgende Passages (komende 24 uur)

TLE

VersSource: Space-Track

Epoch: Sep 14, 2026, 10:43 UTC

1 37794U 11044G   26257.44680502  .00000411  00000-0  83855-4 0  9990
2 37794  97.8488 233.9806 0010646 244.2836 284.1581 14.65733707804535

Volg SICH 2 in realtime met AllMySat

Download on the App Store